[[{"header":{"parameterUnit":"m.s-1","parameterCategory":1,"la1":30.2991,"la2":30.254,"lo1":-89.0895,"lo2":-89.0444,"dy":0.0017,"dx":0.0017,"nx":28,"ny":28,"refTime":"2025-07-03T03:00:00:Z","depth":0,"parameterNumber":2,"parameterNumberName":"U-component_of_WINDS"},"data":[0,0,0,0,0,0,0,0,0,0,0,0,0,0,0,0,0,0,0,0,0,0,0,0,0,0,0,0,0,0,0,0,0,0,0,0,0,0,0,0,0,0,0,0,0,0,0,0,0,0,0,0,0,0,0,0,0,0,-0.5788,-0.5787,0,-0.5735,-0.5734,-0.5734,-0.5709,-0.5709,-0.5709,-0.571,-0.5656,-0.5654,-0.5653,0,0,0,0,0,0,0,0,0,0,0,0,0,-0.5868,-0.5866,-0.5788,-0.5787,-0.5786,-0.5735,-0.5734,-0.5733,-0.5709,-0.5709,-0.5709,-0.571,-0.5656,-0.5654,-0.5653,0,0,0,0,0,0,0,0,0,0,0,0,0,-0.5826,-0.5866,-0.5788,-0.5768,-0.5766,-0.5735,-0.5734,-0.5733,-0.5709,-0.5709,-0.571,-0.571,-0.5657,-0.5655,-0.5652,-0.5637,0,0,-0.5646,-0.5645,0,0,0,0,0,0,0,0,-0.5828,-0.5823,-0.5772,-0.5769,-0.5767,-0.5729,-0.5743,-0.5701,-0.5709,-0.5731,-0.571,-0.571,-0.568,-0.5676,-0.5666,-0.5635,-0.5632,-0.5645,-0.5644,-0.5643,-0.5642,0,0,0,0,0,0,0,-0.5831,-0.5825,-0.5767,-0.5771,-0.5768,-0.5762,-0.5756,-0.5735,-0.5706,-0.5729,-0.5727,-0.5721,-0.5679,-0.5668,-0.5664,-0.5632,-0.5645,-0.5643,-0.5642,-0.5641,-0.5585,-0.5585,0,0,0,0,0,0,-0.5837,-0.5827,-0.5768,-0.5765,-0.5798,-0.576,-0.5754,-0.5741,-0.5706,-0.5701,-0.5721,-0.572,-0.5672,-0.5667,-0.5662,-0.5642,-0.5643,-0.5641,-0.564,-0.5585,-0.5585,-0.5585,0,0,0,0,0,0,-0.5839,-0.5832,-0.5771,-0.5796,-0.5787,-0.5759,-0.5745,-0.574,-0.5729,-0.57,-0.5695,-0.5716,-0.5672,-0.5665,-0.5644,-0.564,-0.564,-0.5638,-0.5585,-0.5585,-0.5585,-0.5602,0,0,0,0,0,0,-0.5841,-0.5833,-0.5827,-0.5796,-0.5786,-0.5753,-0.5744,-0.5739,-0.5725,-0.5724,-0.5693,-0.5688,-0.5671,-0.5647,-0.5641,-0.5637,-0.5636,-0.5586,-0.5585,-0.5585,-0.5601,-0.5602,-0.5602,0,0,0,0,0,-0.5844,-0.5834,-0.5827,-0.582,-0.5778,-0.5753,-0.5747,-0.5728,-0.5725,-0.5719,-0.57,-0.5689,-0.5641,-0.5645,-0.5638,-0.5633,-0.5586,-0.5585,-0.5585,-0.5601,-0.5602,-0.5602,0,0,0,0,0,0,-0.5866,-0.5829,-0.5821,-0.58,-0.578,-0.5749,-0.574,-0.5729,-0.5709,-0.5708,-0.5685,-0.5678,-0.5658,-0.5643,-0.5648,-0.5616,-0.5612,-0.5611,-0.5627,-0.5627,-0.5628,-0.5632,-0.5634,0,0,0,0,0,-0.5868,-0.585,-0.5819,-0.5804,-0.5794,-0.5769,-0.5757,-0.5744,-0.5721,-0.5713,-0.5692,-0.5671,-0.5651,-0.5638,-0.5618,-0.5599,-0.5592,-0.5592,-0.5593,-0.5593,-0.5592,-0.558,-0.558,-0.5584,-0.5584,-0.5584,0,0,-0.5872,-0.585,-0.5841,-0.5808,-0.579,-0.5772,-0.5762,-0.5743,-0.573,-0.571,-0.5688,-0.5672,-0.5647,-0.5626,-0.5616,-0.5613,-0.5589,-0.5593,-0.5594,-0.5592,-0.558,-0.558,-0.5579,-0.5583,-0.5583,-0.5583,0,0,-0.5871,-0.5853,-0.5838,-0.5821,-0.5794,-0.5777,-0.5774,-0.5744,-0.5733,-0.571,-0.5695,-0.5678,-0.5644,-0.5627,-0.5613,-0.5605,-0.5595,-0.5599,-0.5603,-0.5592,-0.5591,-0.5591,-0.5588,-0.5587,-0.5598,-0.5598,-0.5598,0,-0.588,-0.5853,-0.5832,-0.5814,-0.58,-0.5781,-0.5765,-0.5749,-0.5718,-0.5708,-0.5706,-0.5662,-0.5644,-0.5619,-0.5617,-0.5607,-0.5602,-0.5603,-0.5593,-0.5593,-0.5592,-0.5589,-0.5588,-0.5599,-0.5599,-0.5599,-0.5599,0,-0.5865,-0.5846,-0.5837,-0.5807,-0.5792,-0.5775,-0.5752,-0.5739,-0.5727,-0.571,-0.5687,-0.5664,-0.5639,-0.5632,-0.562,-0.5605,-0.5604,-0.5598,-0.5593,-0.5593,-0.5589,-0.5588,-0.56,-0.56,-0.56,-0.56,0,0,-0.5876,-0.5834,-0.5831,-0.5817,-0.5786,-0.5771,-0.5754,-0.5729,-0.5718,-0.5697,-0.5681,-0.5653,-0.5647,-0.5631,-0.5617,-0.5607,-0.5602,-0.5602,-0.5601,-0.5603,-0.5584,-0.5589,-0.5588,-0.5595,-0.5594,-0.5594,-0.5586,0,-0.5871,-0.5839,-0.5819,-0.5795,-0.5777,-0.5758,-0.5743,-0.5722,-0.5706,-0.5689,-0.5671,-0.5651,-0.5644,-0.5635,-0.5624,-0.5605,-0.5598,-0.5605,-0.558,-0.558,-0.5587,-0.5586,-0.5591,-0.5584,-0.5584,-0.5584,-0.5584,0,-0.5861,-0.584,-0.5814,-0.5784,-0.5776,-0.5762,-0.5738,-0.5721,-0.5697,-0.5686,-0.5669,-0.5655,-0.5635,-0.5632,-0.5605,-0.5611,-0.5599,-0.5588,-0.5587,-0.5584,-0.5582,-0.5583,-0.5582,-0.5581,-0.5581,-0.5582,-0.5582,0,-0.5872,-0.5836,-0.5816,-0.5805,-0.577,-0.5761,-0.5746,-0.5722,-0.5708,-0.5687,-0.5677,-0.5654,-0.5641,-0.5624,-0.5603,-0.5603,-0.5578,-0.5573,-0.5568,-0.5569,-0.5564,-0.5564,-0.5561,-0.5556,-0.5557,-0.5557,-0.5557,0,-0.5868,-0.5852,-0.582,-0.5808,-0.579,-0.5768,-0.5751,-0.5734,-0.5713,-0.5697,-0.5679,-0.5664,-0.5638,-0.562,-0.5604,-0.5584,-0.5578,-0.5569,-0.5565,-0.557,-0.5572,-0.5563,-0.5563,-0.5556,-0.5556,-0.5556,-0.5556,0,-0.5877,-0.5855,-0.5831,-0.58,-0.5792,-0.578,-0.5753,-0.5741,-0.5723,-0.5703,-0.5697,-0.567,-0.5648,-0.5626,-0.5596,-0.5585,-0.5565,-0.556,-0.5573,-0.5571,-0.5567,-0.5568,-0.5558,-0.5555,-0.5553,-0.5553,-0.5553,0,-0.5876,-0.5864,-0.5831,-0.5819,-0.5804,-0.5785,-0.5771,-0.5748,-0.5734,-0.5705,-0.5696,-0.5672,-0.5652,-0.5618,-0.5595,-0.5572,-0.5566,-0.5564,-0.5563,-0.5568,-0.5566,-0.5567,-0.5565,-0.5565,-0.5565,-0.5565,-0.5565,0,-0.5876,-0.5866,-0.5846,-0.5822,-0.5806,-0.5786,-0.5765,-0.5756,-0.573,-0.5715,-0.5692,-0.5676,-0.5645,-0.5622,-0.5596,-0.5581,-0.5569,-0.5566,-0.5563,-0.5569,-0.5577,-0.5573,-0.5575,-0.5566,-0.5566,-0.5566,-0.5566,-0.5566,-0.588,-0.5868,-0.5843,-0.5822,-0.5804,-0.5785,-0.5771,-0.5752,-0.5733,-0.5706,-0.5693,-0.567,-0.5646,-0.561,-0.5595,-0.5576,-0.5573,-0.557,-0.5569,-0.5568,-0.5569,-0.558,-0.5572,-0.5571,-0.5571,-0.5571,-0.5571,0,-0.588,-0.5863,-0.5843,-0.5815,-0.5798,-0.5787,-0.5764,-0.575,-0.573,-0.5708,-0.5689,-0.5662,-0.564,-0.5615,-0.5591,-0.5581,-0.5575,-0.5575,-0.5576,-0.5572,-0.5574,-0.5578,-0.5581,-0.5581,-0.5581,-0.5581,-0.5581,-0.5581,-0.5878,-0.5857,-0.5843,-0.5813,-0.5796,-0.5773,-0.5761,-0.5743,-0.5726,-0.5697,-0.5678,-0.5662,-0.5639,-0.5613,-0.5592,-0.5585,-0.5577,-0.5579,-0.5571,-0.5573,-0.5572,-0.5572,-0.5576,-0.5578,-0.5578,-0.5571,-0.5571,-0.5571]},{"header":{"parameterUnit":"m.s-1","parameterCategory":1,"la1":30.2991,"la2":30.254,"lo1":-89.0895,"lo2":-89.0444,"dy":0.0017,"dx":0.0017,"nx":28,"ny":28,"refTime":"2025-07-03T03:00:00:Z","depth":0,"parameterNumber":3,"parameterNumberName":"V-component_of_WINDS"},"data":[0,0,0,0,0,0,0,0,0,0,0,0,0,0,0,0,0,0,0,0,0,0,0,0,0,0,0,0,0,0,0,0,0,0,0,0,0,0,0,0,0,0,0,0,0,0,0,0,0,0,0,0,0,0,0,0,0,0,-1.6958,-1.6959,0,-1.7046,-1.7047,-1.7048,-1.7066,-1.7066,-1.7065,-1.7064,-1.7154,-1.7157,-1.716,0,0,0,0,0,0,0,0,0,0,0,0,0,-1.6804,-1.6807,-1.6958,-1.6959,-1.696,-1.7046,-1.7047,-1.7049,-1.7066,-1.7066,-1.7065,-1.7064,-1.7153,-1.7156,-1.716,0,0,0,0,0,0,0,0,0,0,0,0,0,-1.688,-1.6808,-1.6958,-1.6979,-1.6982,-1.7046,-1.7047,-1.7049,-1.7067,-1.7066,-1.7065,-1.7064,-1.7152,-1.7156,-1.716,-1.7208,0,0,-1.7174,-1.7176,0,0,0,0,0,0,0,0,-1.6875,-1.6885,-1.6975,-1.6978,-1.6981,-1.7044,-1.7026,-1.7102,-1.7067,-1.7035,-1.7064,-1.7063,-1.7118,-1.7125,-1.7144,-1.7213,-1.7216,-1.7175,-1.7177,-1.7179,-1.7181,0,0,0,0,0,0,0,-1.687,-1.6882,-1.6993,-1.6976,-1.698,-1.6985,-1.6994,-1.7041,-1.7081,-1.7037,-1.7039,-1.7049,-1.712,-1.714,-1.7146,-1.7218,-1.7175,-1.7179,-1.7181,-1.7183,-1.7332,-1.7333,0,0,0,0,0,0,-1.6861,-1.6877,-1.699,-1.6996,-1.6925,-1.6988,-1.6999,-1.7025,-1.708,-1.7088,-1.705,-1.705,-1.7132,-1.7141,-1.715,-1.7211,-1.7179,-1.7184,-1.7186,-1.7331,-1.7332,-1.7334,0,0,0,0,0,0,-1.6858,-1.6871,-1.6987,-1.6937,-1.6952,-1.6992,-1.7021,-1.7027,-1.7048,-1.709,-1.7097,-1.7063,-1.7132,-1.7143,-1.7194,-1.7214,-1.7186,-1.719,-1.7329,-1.7331,-1.7333,-1.7333,0,0,0,0,0,0,-1.6853,-1.687,-1.6888,-1.6937,-1.6954,-1.703,-1.7022,-1.703,-1.7055,-1.7056,-1.7104,-1.7111,-1.7132,-1.7187,-1.7199,-1.722,-1.7193,-1.7328,-1.733,-1.7332,-1.7332,-1.7335,-1.7338,0,0,0,0,0,-1.6848,-1.6884,-1.6889,-1.6903,-1.6979,-1.7031,-1.7041,-1.7064,-1.7057,-1.7076,-1.7104,-1.711,-1.721,-1.7192,-1.7205,-1.7228,-1.7327,-1.733,-1.7332,-1.733,-1.7334,-1.7338,0,0,0,0,0,0,-1.6836,-1.6891,-1.6897,-1.6951,-1.6986,-1.7034,-1.7059,-1.7067,-1.7105,-1.7104,-1.7132,-1.7142,-1.7192,-1.7215,-1.7195,-1.7279,-1.7268,-1.7273,-1.7262,-1.7266,-1.7269,-1.7263,-1.7197,0,0,0,0,0,-1.684,-1.6878,-1.6924,-1.6966,-1.6984,-1.7018,-1.7042,-1.7057,-1.7095,-1.711,-1.7141,-1.7177,-1.7217,-1.7242,-1.7281,-1.7335,-1.7346,-1.7357,-1.736,-1.7362,-1.7367,-1.7399,-1.7405,-1.7343,-1.7343,-1.7343,0,0,-1.6848,-1.6883,-1.6905,-1.6965,-1.6994,-1.7034,-1.7031,-1.7072,-1.7101,-1.7116,-1.7167,-1.7191,-1.7233,-1.7286,-1.731,-1.7306,-1.7386,-1.7366,-1.7367,-1.7371,-1.7402,-1.7408,-1.7413,-1.7345,-1.7345,-1.7344,0,0,-1.6883,-1.6912,-1.6952,-1.6982,-1.7027,-1.7049,-1.7059,-1.7106,-1.7123,-1.7174,-1.7186,-1.7221,-1.7289,-1.7319,-1.7343,-1.7391,-1.7398,-1.7402,-1.7419,-1.7449,-1.7454,-1.7459,-1.7477,-1.7484,-1.7407,-1.7407,-1.7407,0,-1.6887,-1.6947,-1.6971,-1.7013,-1.704,-1.7055,-1.7096,-1.7123,-1.7178,-1.7196,-1.719,-1.7277,-1.7306,-1.7367,-1.7379,-1.7397,-1.741,-1.7398,-1.7452,-1.7456,-1.7461,-1.7479,-1.7486,-1.7407,-1.7407,-1.7407,-1.7407,0,-1.6951,-1.6992,-1.7019,-1.7073,-1.7102,-1.7143,-1.7174,-1.7201,-1.7213,-1.7237,-1.7289,-1.7325,-1.7372,-1.7387,-1.74,-1.7451,-1.7447,-1.7446,-1.7436,-1.7467,-1.7484,-1.7491,-1.7408,-1.7408,-1.7407,-1.7407,0,0,-1.6982,-1.7049,-1.7059,-1.7084,-1.7135,-1.7168,-1.7209,-1.7256,-1.7279,-1.7316,-1.7353,-1.741,-1.741,-1.7437,-1.7453,-1.748,-1.7517,-1.7476,-1.7477,-1.7484,-1.7578,-1.758,-1.7587,-1.7522,-1.7523,-1.7524,-1.7575,0,-1.7025,-1.71,-1.7124,-1.7187,-1.7227,-1.7242,-1.7279,-1.7314,-1.7337,-1.7373,-1.7398,-1.7439,-1.7435,-1.7452,-1.7479,-1.7507,-1.7537,-1.7503,-1.7557,-1.7559,-1.7548,-1.7596,-1.7598,-1.7644,-1.7582,-1.7583,-1.7584,0,-1.7085,-1.7124,-1.7192,-1.7239,-1.7257,-1.7289,-1.7335,-1.7369,-1.741,-1.7425,-1.7456,-1.747,-1.7514,-1.7501,-1.7563,-1.754,-1.7563,-1.758,-1.7583,-1.759,-1.7574,-1.7607,-1.7659,-1.7667,-1.7595,-1.7594,-1.7593,0,-1.7103,-1.7173,-1.7223,-1.7244,-1.73,-1.7322,-1.7347,-1.7386,-1.7413,-1.7453,-1.7471,-1.7515,-1.7539,-1.7573,-1.7598,-1.7586,-1.7659,-1.7647,-1.7674,-1.7673,-1.769,-1.7689,-1.7749,-1.7702,-1.7701,-1.7701,-1.7701,0,-1.7149,-1.719,-1.7232,-1.7263,-1.731,-1.7336,-1.7382,-1.7407,-1.7442,-1.7479,-1.7494,-1.7527,-1.7558,-1.7596,-1.7616,-1.7666,-1.7676,-1.769,-1.7695,-1.769,-1.7689,-1.7707,-1.7705,-1.7703,-1.7703,-1.7702,-1.7702,0,-1.7178,-1.7207,-1.7263,-1.7312,-1.7325,-1.7358,-1.74,-1.743,-1.7454,-1.75,-1.7512,-1.7549,-1.7595,-1.7623,-1.7681,-1.7694,-1.775,-1.7753,-1.7736,-1.7739,-1.7765,-1.7763,-1.784,-1.7852,-1.7795,-1.7796,-1.7796,0,-1.7206,-1.7239,-1.7291,-1.7317,-1.7342,-1.7383,-1.7411,-1.7438,-1.7467,-1.7516,-1.7542,-1.7588,-1.7627,-1.7699,-1.7731,-1.7776,-1.7781,-1.7805,-1.7788,-1.7782,-1.7784,-1.7783,-1.7787,-1.7809,-1.7809,-1.7809,-1.781,0,-1.7254,-1.7268,-1.7308,-1.7354,-1.7387,-1.7425,-1.7462,-1.7482,-1.7515,-1.7547,-1.7594,-1.7624,-1.7684,-1.7731,-1.7778,-1.7803,-1.7813,-1.7815,-1.7824,-1.782,-1.781,-1.7817,-1.7746,-1.7813,-1.7813,-1.7813,-1.7813,-1.7812,-1.7285,-1.7316,-1.7358,-1.7403,-1.7434,-1.7468,-1.75,-1.7528,-1.7569,-1.762,-1.7633,-1.7683,-1.7723,-1.7788,-1.7814,-1.7854,-1.7851,-1.7863,-1.7867,-1.787,-1.7871,-1.7802,-1.7862,-1.7862,-1.7862,-1.7862,-1.7862,0,-1.7336,-1.7364,-1.7405,-1.7457,-1.7493,-1.7499,-1.754,-1.757,-1.7614,-1.7651,-1.7689,-1.7744,-1.779,-1.7826,-1.7873,-1.7898,-1.7903,-1.7909,-1.7909,-1.7915,-1.787,-1.7859,-1.7904,-1.7904,-1.7904,-1.7904,-1.7904,-1.7904,-1.7367,-1.7419,-1.7437,-1.7505,-1.7533,-1.7583,-1.7606,-1.7639,-1.7669,-1.773,-1.7768,-1.7791,-1.7829,-1.7879,-1.7921,-1.793,-1.7948,-1.7953,-1.7964,-1.7922,-1.7918,-1.7913,-1.7903,-1.7956,-1.7956,-1.8005,-1.8005,-1.8006]}]]